Temperature
9 9 8 8 8 7 7 7 7 7 7 7 7 7 7 7 7 7 7 7 7 7 7 7 7 7 6 6 6 6 6 7 6 6 7 7 7 7 7 7 7 7 7
9 8 8 7 7 7 7 7 7 6 6 6 6 6 6 6 6 6 6 6 6 6 6 6 6 6 6 6 6 6 6 6 6 6 6 5 6 7 7 7 7 7 7
9 8 7 7 7 6 6 6 6 6 6 6 6 6 6 6 6 6 6 6 6 6 6 6 6 6 6 6 5 5 5 5 5 5 5 5 5 5 6 6 6 6 6
8 8 7 6 6 6 6 6 6 6 5 6 6 6 6 5 5 5 5 5 5 5 5 5 5 5 5 5 5 5 5 5 5 5 5 5 5 5 5 5 5 5 5
8 7 7 6 6 6 6 6 5 5 5 5 5 5 5 5 5 5 4 5 5 5 5 5 5 5 5 5 5 4 5 4 4 4 4 4 4 4 4 4 5 5 5
8 7 6 6 5 5 5 5 5 5 5 5 5 5 4 4 4 4 4 4 4 4 4 4 4 4 4 4 4 4 4 4 4 4 4 4 4 4 4 4 4 4 4
7 7 6 5 5 5 5 5 4 4 4 4 4 4 4 4 4 4 4 4 4 4 4 4 4 4 4 4 4 4 4 4 4 4 4 4 4 4 4 3 3 3 4
7 6 6 5 5 4 4 4 4 4 4 4 4 4 4 4 4 3 3 3 3 3 3 3 4 4 4 4 4 3 3 3 3 3 3 3 3 3 3 3 3 3 3
7 6 5 5 5 4 4 4 4 4 4 4 3 4 3 3 3 3 3 3 3 3 3 3 3 3 3 3 3 3 3 3 3 3 3 3 3 3 3 3 3 2 2
6 6 5 5 4 4 4 3 3 3 3 3 3 3 3 3 3 3 3 3 3 3 3 3 3 3 3 3 3 2 2 2 2 2 2 2 2 3 3 2 2 2 2
6 5 5 4 4 3 3 3 3 3 3 3 3 3 3 3 2 2 2 2 2 2 3 3 3 3 3 2 2 2 2 2 2 2 2 2 2 2 2 2 2 2 2
6 5 4 4 4 3 3 3 3 3 3 3 2 2 2 2 2 2 2 2 2 2 2 2 2 2 2 2 2 2 1 1 1 1 1 2 2 2 2 1 1 1 1
5 4 4 4 3 3 3 3 3 3 3 2 2 2 2 2 2 2 2 2 2 2 2 2 2 2 1 1 1 1 1 1 1 1 1 1 1 1 1 1 1 1 1
4 4 3 3 3 3 3 3 2 2 2 2 2 2 2 2 2 1 1 1 1 1 1 1 1 1 1 1 1 1 1 1 1 1 1 1 1 1 1 1 1 1 1
4 4 3 3 3 3 3 2 2 2 2 2 2 2 2 2 2 1 1 1 1 1 1 1 1 1 1 1 0 0 1 1 1 1 1 1 1 0 0 0 0 1 1
4 3 3 3 2 2 2 2 2 2 2 1 1 1 1 1 1 1 1 1 1 1 1 1 1 0 0 0 0 0 0 0 0 0 0 -0 -0 -0 -0 -0 -0 0 0
4 3 3 3 2 2 2 2 2 1 1 1 1 1 1 1 1 1 1 1 1 0 0 0 0 0 0 0 0 0 -0 -0 -0 -0 -0 -1 -1 -1 -1 -1 -1 -0 -0
3 3 3 2 2 2 2 1 1 1 1 1 1 1 1 0 0 0 0 0 0 0 0 -0 -0 -0 -0 -0 -0 -0 -0 -0 -1 -1 -1 -1 -1 -1 -1 -1 -1 -1 -1
3 3 2 2 2 2 1 1 1 1 1 0 0 0 0 0 -0 -0 -0 -0 -0 -0 -0 -1 -1 -1 -1 -1 -1 -1 -1 -1 -1 -1 -1 -1 -1 -1 -1 -1 -1 -1 -1
3 2 2 2 2 1 1 1 0 0 0 0 -0 -0 -0 -0 -0 -0 -0 -1 -1 -1 -1 -1 -1 -1 -1 -1 -1 -1 -1 -1 -1 -1 -1 -1 -2 -2 -2 -2 -2 -2 -1
2 2 2 2 1 1 1 0 0 0 -0 -0 -0 -0 -0 -1 -1 -1 -1 -1 -1 -1 -1 -1 -1 -2 -2 -2 -2 -2 -2 -2 -2 -2 -2 -2 -2 -2 -2 -2 -2 -2 -2
2 2 2 1 1 1 0 0 0 -0 -0 -0 -0 -0 -1 -1 -1 -1 -1 -1 -1 -1 -1 -2 -2 -2 -2 -2 -2 -2 -2 -2 -2 -2 -2 -2 -2 -2 -2 -2 -2 -2 -2
2 1 1 1 1 1 0 -0 -0 -0 -0 -0 -1 -1 -1 -1 -1 -1 -1 -1 -2 -2 -2 -2 -2 -2 -2 -2 -2 -2 -2 -2 -3 -3 -3 -3 -3 -3 -3 -3 -2 -2 -2
1 1 1 1 0 0 0 -0 -0 -0 -0 -1 -1 -1 -1 -1 -1 -1 -2 -2 -2 -2 -2 -3 -3 -3 -3 -3 -3 -3 -3 -3 -3 -3 -3 -3 -3 -3 -3 -3 -3 -3 -3
1 0 0 0 0 -0 -0 -0 -0 -1 -1 -1 -1 -1 -1 -1 -1 -1 -2 -2 -2 -2 -2 -3 -3 -3 -3 -3 -3 -3 -3 -3 -3 -3 -4 -4 -4 -4 -4 -3 -3 -3 -3
0 0 0 -0 -0 -0 -0 -0 -0 -1 -1 -1 -1 -1 -1 -1 -2 -2 -2 -2 -2 -2 -3 -3 -3 -3 -3 -4 -4 -4 -4 -4 -4 -4 -4 -4 -4 -4 -4 -4 -4 -4 -4
Wind_Speed
3 3 3 2 2 2 2 2 2 2 1 1 1 1 1 1 1 1 1 2 2 2 2 2 2 2 2 2 2 2 2 2 2 1 3 4 4 3 2 2 1 1 1
3 4 4 3 3 2 1 1 1 2 1 1 1 1 1 1 1 1 1 2 2 3 3 2 2 2 2 2 2 2 1 2 1 1 1 2 2 2 2 2 2 2 1
3 4 4 3 2 2 2 2 2 2 2 1 1 1 1 1 1 1 1 2 2 3 2 2 2 2 2 2 2 2 2 2 2 1 1 1 2 3 2 3 2 2 2
3 3 3 3 3 2 2 2 2 2 2 1 1 2 2 2 2 2 1 2 2 2 2 2 2 2 2 2 2 2 2 2 3 2 2 2 1 1 3 3 3 2 2
3 3 3 3 2 2 2 1 1 1 1 1 2 2 2 2 1 1 1 2 1 2 2 2 2 2 2 2 2 2 2 2 3 2 2 2 2 2 2 4 3 2 2
2 2 3 3 2 2 1 1 1 1 1 1 1 1 2 2 1 1 2 2 2 2 3 3 2 2 2 2 3 3 3 3 3 3 2 2 2 2 2 3 3 4 3
3 3 2 3 2 2 2 1 1 1 1 0 1 1 2 2 2 2 2 2 2 2 3 3 2 2 2 2 2 3 3 3 3 3 3 2 2 2 2 2 3 4 3
3 3 3 3 3 3 3 2 2 2 1 1 1 2 2 1 2 2 2 2 2 2 3 3 3 2 2 2 2 2 3 3 3 3 2 2 2 2 2 2 2 3 3
3 3 3 3 3 3 3 3 2 1 1 1 1 1 2 2 2 2 2 2 2 2 2 3 2 3 2 2 2 2 2 2 2 3 3 2 3 2 2 2 2 3 4
3 3 3 3 3 3 3 2 2 2 1 1 1 1 2 2 2 2 2 3 3 3 3 3 3 3 3 2 2 1 2 2 2 2 3 3 2 2 2 2 2 3 3
3 3 2 2 3 3 3 3 2 2 2 2 1 1 2 2 2 2 3 3 3 3 3 3 3 3 3 2 2 2 3 3 2 2 3 3 2 2 2 2 2 3 3
2 2 2 2 2 2 3 3 3 2 2 2 1 2 2 1 2 2 2 2 2 3 3 3 3 3 3 2 3 3 3 3 3 3 3 3 3 3 2 2 3 3 3
2 2 2 2 2 2 2 3 3 2 2 2 2 2 2 2 2 2 2 2 2 3 3 3 3 3 3 3 3 3 3 3 3 3 3 3 3 3 3 3 3 2 3
2 2 2 2 2 2 2 2 3 2 2 2 2 2 2 2 2 2 2 2 2 2 3 3 3 3 3 3 3 3 3 3 3 3 3 3 3 3 3 3 3 3 2
3 3 2 2 2 2 2 2 2 2 2 2 2 2 2 1 1 2 2 2 2 3 3 3 3 3 3 3 3 3 3 2 3 3 3 3 3 3 3 2 2 2 2
3 3 3 3 2 3 2 2 2 2 2 2 2 2 2 2 2 2 2 2 3 3 3 2 3 3 3 4 4 3 3 2 3 3 3 2 3 3 4 4 3 3 2
3 2 2 2 2 2 2 2 2 1 1 1 2 2 2 2 2 2 2 2 3 3 2 2 2 2 3 4 4 3 2 2 2 3 3 2 2 3 2 2 3 3 4
3 3 2 2 1 1 1 1 1 1 1 2 2 2 1 2 2 1 2 2 2 2 2 3 2 2 3 4 3 4 2 2 2 2 1 1 1 2 1 0 1 1 2
2 2 1 1 1 1 1 1 1 1 1 2 2 2 2 2 2 2 2 2 2 2 2 2 2 2 3 3 3 2 1 1 1 1 1 1 1 1 1 1 1 2 2
0 0 0 1 0 1 1 2 1 1 2 2 2 2 2 2 2 2 2 2 2 3 2 2 2 2 2 2 2 2 1 1 1 1 1 2 1 2 2 1 1 2 2
0 0 1 0 1 1 2 2 1 2 2 1 1 1 1 2 2 2 2 2 2 2 1 2 2 1 1 2 2 2 1 1 1 1 1 1 2 2 3 2 1 3 2
1 0 0 1 1 1 2 2 2 2 1 1 1 1 2 2 2 2 2 1 1 1 2 2 1 1 1 2 2 2 2 1 1 1 1 1 2 2 2 2 2 2 2
1 1 1 1 1 1 2 3 2 2 1 1 1 1 2 1 1 1 2 1 1 1 2 2 2 1 1 2 3 3 3 3 1 1 1 1 1 2 1 2 3 2 1
1 1 1 2 2 2 2 3 2 1 1 1 2 1 1 1 1 1 1 1 2 2 2 2 2 2 1 1 1 1 2 2 1 1 1 1 1 1 2 2 2 1 1
1 1 2 3 3 2 2 2 2 2 2 2 2 1 1 1 1 1 1 2 2 3 3 3 2 2 2 3 3 2 2 2 2 1 1 1 1 1 1 1 1 1 1
2 2 2 3 3 2 2 2 2 3 2 2 2 1 1 1 1 1 2 2 2 3 3 3 3 2 3 3 3 3 3 3 2 1 1 2 2 1 1 1 1 1 1
Wind_Direction
187 168 169 162 156 157 159 182 175 183 182 201 228 244 242 252 266 261 265 249 244 256 264 277 282 276 256 254 255 259 276 288 287 296 301 280 257 234 237 248 260 260 225
199 184 179 171 168 162 161 186 198 190 196 209 221 239 239 243 239 253 280 269 260 254 256 253 261 269 260 256 250 260 254 266 256 230 285 298 305 287 255 233 242 253 238
210 196 182 178 169 178 194 208 216 203 206 208 187 250 274 285 256 261 257 266 265 263 262 258 264 264 252 231 223 231 234 250 258 232 201 223 270 306 277 252 239 245 248
205 187 178 182 181 193 199 202 198 194 205 195 187 210 227 233 246 239 247 270 258 263 261 272 274 268 250 222 227 219 238 245 247 260 255 247 228 246 299 283 261 251 254
193 180 178 188 180 169 178 197 181 191 218 215 206 227 245 245 260 258 255 274 272 249 266 270 267 264 246 223 231 237 248 252 243 243 254 262 266 247 233 276 293 299 273
178 164 169 167 153 137 153 179 173 191 215 234 222 234 239 232 238 257 259 276 275 259 249 258 253 258 245 223 227 232 239 255 256 248 242 233 234 232 231 255 285 291 291
167 166 166 168 160 161 176 184 187 215 225 259 259 267 254 225 228 250 247 266 269 276 260 261 257 256 250 237 234 231 238 251 252 247 247 241 243 243 241 251 278 294 295
167 161 159 163 167 176 180 184 198 217 217 236 259 275 271 248 251 255 259 258 260 262 269 265 263 265 255 249 240 242 238 245 236 240 245 243 246 239 230 232 256 294 293
162 159 157 161 173 184 185 185 186 205 220 229 244 270 268 259 267 276 274 271 275 275 274 268 267 268 262 246 237 242 257 248 227 227 236 241 241 238 244 238 223 237 277
157 156 160 175 186 181 182 174 178 201 222 223 229 267 264 259 266 273 273 277 282 279 276 277 270 261 252 240 236 244 258 239 235 226 229 242 242 233 234 238 245 240 251
162 164 169 178 175 168 176 187 191 200 219 224 228 246 256 263 272 280 278 275 278 276 271 268 266 262 257 245 240 241 250 231 238 248 239 241 244 235 229 232 240 248 247
164 161 167 173 175 184 197 197 197 206 216 219 229 241 239 249 265 277 287 287 285 282 275 273 267 263 256 247 245 245 246 224 230 240 244 252 251 243 235 234 238 243 245
165 160 173 188 199 206 209 202 202 212 212 205 219 234 239 244 266 279 288 295 291 289 285 274 265 263 255 247 248 247 251 231 232 236 239 250 246 245 241 237 240 245 256
197 207 215 215 206 209 206 204 211 213 211 209 216 228 240 247 263 282 284 285 287 281 275 268 268 265 258 247 249 248 252 237 236 237 237 241 242 246 242 242 240 243 246
216 213 228 235 224 219 220 214 213 212 216 216 219 234 245 250 265 280 281 279 284 279 269 271 273 268 255 245 251 250 252 238 239 243 245 245 262 275 268 260 251 244 239
232 233 235 235 232 221 220 224 216 208 200 209 223 234 239 244 253 268 276 277 280 278 272 271 270 268 269 267 260 255 245 233 229 240 246 247 251 269 282 286 293 283 249
252 235 232 234 234 219 212 230 226 206 197 226 239 236 237 249 247 255 263 265 270 277 272 269 274 273 279 279 274 273 250 226 235 243 238 240 256 267 266 292 303 313 304
259 249 241 240 237 202 197 214 191 181 203 227 244 243 234 254 256 255 268 272 276 279 271 265 266 270 283 284 269 278 240 219 233 242 237 213 221 251 247 275 306 299 296
264 246 233 221 198 192 177 154 175 171 196 232 244 243 225 245 251 251 263 265 265 270 268 270 265 262 283 283 267 264 233 218 237 242 236 214 217 294 303 279 283 300 309
345 331 10 22 183 215 167 160 192 193 222 237 247 248 228 240 252 245 251 261 255 253 254 262 258 249 271 287 276 257 233 222 242 260 247 233 247 285 307 278 239 273 294
328 101 114 224 222 200 165 181 201 227 239 240 249 254 243 247 253 249 245 251 250 249 253 259 264 254 273 276 280 271 228 226 229 242 260 256 277 283 293 292 259 271 293
342 79 233 277 265 198 177 203 226 237 223 208 233 254 258 261 267 247 256 242 222 224 243 253 271 268 267 273 275 293 306 287 220 245 254 258 293 288 286 292 306 305 310
261 256 251 281 279 220 193 215 235 216 191 200 233 258 267 266 272 244 248 235 209 218 238 240 248 268 279 272 279 285 305 316 275 243 262 298 299 313 295 314 335 328 301
257 254 240 258 270 253 222 220 216 191 188 214 234 244 248 270 275 245 226 214 212 222 230 240 246 253 254 256 266 259 272 290 276 249 249 273 294 317 328 329 324 321 309
261 235 226 243 257 258 239 213 200 184 190 219 239 247 244 249 262 259 243 237 231 226 222 226 229 230 240 258 278 278 261 246 246 223 180 223 230 257 285 293 301 297 309
274 264 253 249 260 259 250 220 202 190 188 213 231 238 232 252 268 302 327 307 268 267 259 258 257 257 253 264 269 270 267 251 241 198 205 226 224 233 246 253 262 268 274
Height
1472 1473 1473 1474 1474 1475 1475 1476 1476 1477 1477 1477 1477 1477 1477 1478 1478 1478 1478 1478 1478 1478 1477 1477 1477 1477 1477 1476 1476 1476 1476 1477 1477 1477 1476 1476 1476 1476 1476 1477 1477 1477 1477
1469 1469 1470 1470 1471 1472 1472 1473 1473 1473 1474 1474 1474 1474 1474 1474 1475 1475 1475 1475 1475 1474 1473 1473 1473 1472 1472 1472 1472 1473 1473 1474 1475 1474 1474 1474 1474 1473 1473 1474 1474 1474 1474
1465 1466 1466 1467 1467 1468 1469 1469 1470 1470 1471 1471 1471 1471 1471 1471 1471 1471 1471 1471 1471 1470 1470 1470 1469 1469 1468 1468 1469 1469 1470 1470 1471 1472 1473 1472 1471 1470 1470 1471 1471 1471 1471
1462 1463 1463 1464 1464 1465 1466 1466 1467 1467 1468 1468 1467 1467 1467 1467 1467 1467 1467 1467 1467 1467 1466 1466 1465 1465 1465 1465 1466 1466 1467 1468 1468 1469 1470 1471 1470 1469 1467 1467 1468 1468 1468
1459 1459 1460 1460 1461 1462 1463 1463 1464 1464 1464 1465 1464 1464 1464 1464 1464 1464 1464 1463 1463 1463 1462 1462 1462 1461 1461 1462 1462 1463 1464 1465 1465 1465 1466 1467 1467 1467 1467 1464 1464 1464 1464
1456 1457 1457 1458 1458 1459 1459 1460 1460 1461 1461 1461 1461 1461 1461 1461 1461 1460 1460 1460 1459 1459 1459 1459 1458 1458 1458 1459 1459 1460 1460 1461 1462 1461 1462 1463 1463 1463 1463 1462 1460 1460 1460
1453 1454 1454 1454 1455 1455 1456 1456 1457 1457 1458 1458 1458 1458 1458 1458 1457 1457 1457 1457 1456 1456 1455 1455 1455 1455 1455 1456 1456 1456 1457 1457 1458 1458 1459 1459 1459 1460 1460 1459 1458 1457 1456
1450 1451 1451 1451 1452 1452 1453 1453 1454 1454 1454 1454 1454 1455 1455 1454 1454 1454 1454 1454 1453 1453 1453 1452 1452 1452 1452 1452 1452 1453 1453 1453 1454 1454 1455 1455 1455 1456 1456 1456 1455 1454 1453
1448 1448 1449 1449 1449 1450 1450 1450 1451 1451 1451 1451 1451 1451 1451 1451 1451 1451 1451 1451 1450 1450 1450 1449 1449 1448 1449 1448 1448 1449 1449 1449 1450 1450 1451 1451 1452 1452 1452 1452 1452 1453 1450
1445 1446 1446 1447 1447 1448 1448 1448 1448 1448 1448 1448 1448 1448 1448 1448 1448 1448 1448 1447 1447 1447 1446 1446 1445 1445 1445 1445 1445 1445 1446 1446 1446 1446 1447 1447 1447 1448 1448 1449 1449 1449 1449
1443 1444 1444 1445 1445 1445 1445 1445 1445 1445 1445 1445 1445 1445 1445 1445 1445 1445 1444 1444 1444 1443 1443 1443 1442 1442 1442 1442 1442 1442 1442 1442 1442 1443 1443 1443 1444 1444 1445 1445 1445 1446 1446
1441 1441 1442 1442 1442 1442 1442 1442 1442 1442 1442 1442 1442 1442 1442 1442 1442 1442 1442 1441 1441 1440 1439 1439 1439 1439 1438 1438 1438 1438 1438 1439 1439 1439 1439 1440 1440 1441 1441 1441 1441 1442 1442
1439 1439 1440 1440 1439 1439 1439 1439 1439 1439 1439 1440 1439 1439 1439 1439 1439 1439 1438 1438 1438 1437 1436 1436 1435 1435 1435 1435 1435 1435 1435 1435 1435 1436 1436 1436 1437 1437 1437 1438 1438 1438 1438
1437 1437 1437 1437 1437 1437 1436 1436 1436 1436 1436 1436 1436 1436 1436 1436 1436 1436 1435 1435 1435 1434 1433 1433 1432 1432 1432 1432 1431 1432 1432 1432 1432 1432 1433 1433 1433 1433 1434 1434 1434 1434 1434
1434 1434 1434 1434 1434 1433 1433 1433 1433 1432 1432 1432 1432 1433 1433 1433 1433 1433 1433 1432 1432 1431 1430 1430 1429 1429 1429 1429 1428 1428 1428 1428 1428 1429 1429 1430 1430 1430 1430 1431 1431 1431 1431
1431 1431 1431 1431 1430 1430 1430 1429 1429 1429 1429 1429 1429 1430 1430 1430 1430 1429 1429 1429 1428 1428 1427 1427 1426 1426 1426 1426 1425 1425 1425 1425 1425 1425 1426 1426 1426 1426 1427 1427 1428 1428 1428
1427 1427 1427 1427 1427 1426 1426 1425 1425 1425 1425 1425 1426 1426 1426 1426 1426 1426 1426 1426 1425 1425 1424 1424 1423 1423 1422 1422 1422 1422 1422 1422 1422 1422 1423 1423 1423 1423 1423 1424 1424 1424 1425
1424 1424 1424 1423 1423 1423 1423 1422 1422 1422 1422 1422 1422 1423 1423 1423 1423 1423 1423 1423 1422 1422 1421 1421 1420 1420 1419 1419 1419 1419 1420 1419 1419 1420 1420 1420 1420 1420 1421 1421 1420 1421 1421
1422 1421 1421 1421 1420 1420 1420 1420 1419 1419 1419 1419 1419 1419 1419 1419 1419 1419 1419 1419 1419 1418 1418 1418 1418 1417 1417 1417 1417 1417 1417 1417 1417 1417 1417 1417 1418 1418 1418 1418 1417 1417 1417
1420 1419 1419 1418 1418 1418 1418 1417 1417 1417 1417 1417 1417 1417 1416 1416 1416 1415 1416 1416 1416 1415 1415 1415 1415 1415 1415 1415 1415 1415 1414 1414 1414 1415 1415 1415 1415 1416 1416 1415 1415 1414 1414
1417 1417 1416 1416 1416 1416 1415 1415 1414 1414 1415 1414 1414 1414 1413 1413 1413 1413 1413 1413 1413 1413 1412 1412 1413 1413 1413 1413 1413 1413 1412 1412 1412 1412 1412 1412 1413 1413 1413 1413 1413 1413 1413
1415 1414 1414 1413 1413 1413 1413 1412 1412 1412 1412 1412 1411 1411 1410 1410 1410 1410 1410 1410 1410 1410 1410 1410 1410 1410 1410 1410 1410 1410 1410 1410 1410 1410 1410 1410 1411 1411 1411 1411 1410 1411 1411
1413 1412 1412 1411 1411 1411 1410 1410 1410 1410 1410 1409 1409 1408 1408 1408 1407 1407 1407 1407 1407 1407 1407 1407 1407 1407 1407 1407 1407 1407 1408 1408 1408 1408 1408 1408 1408 1408 1408 1408 1408 1408 1408
1410 1410 1409 1409 1409 1409 1408 1408 1408 1408 1407 1407 1406 1406 1406 1405 1405 1405 1404 1404 1404 1404 1404 1404 1404 1404 1404 1404 1404 1404 1405 1405 1405 1405 1406 1406 1406 1406 1406 1406 1406 1406 1406
1408 1408 1407 1407 1406 1406 1406 1406 1405 1405 1405 1404 1404 1404 1403 1403 1402 1402 1402 1402 1402 1402 1402 1401 1401 1401 1401 1401 1401 1402 1402 1402 1402 1403 1403 1403 1403 1403 1403 1403 1404 1404 1404
1405 1405 1404 1404 1404 1403 1403 1403 1402 1402 1402 1401 1401 1401 1401 1400 1400 1399 1399 1399 1399 1399 1399 1399 1399 1398 1399 1399 1399 1399 1399 1400 1400 1400 1400 1400 1400 1401 1401 1401 1402 1402 1402